User: anonymous   Login
Location: Poughquag
(41.6090°N, 73.6820°W)
Time: 11:40:12
(UTC-04:00)
Language:

STARLINK-1321 - Orbit

View from above orbital plane
View from above orbital plane
View from above satellite
View from above satellite

Ground track
Ground track

The orbit data is extracted from the following two-line orbital elements,

1 45573C 20025AU  20221.42652385 -.01137753  00000-0 -33988-1 0  2214
2 45573  53.0016 232.6878 0001408  58.0981  47.0023 15.35180551    12
Epoch (UTC): 08 August 2020 10:14:11
Eccentricity: 0.0001408
inclination: 53.0016°
perigee height: 459 km
apogee height: 461 km
right ascension of ascending node: 232.6878°
argument of perigee: 58.0981°
revolutions per day: 15.35180551
mean anomaly at epoch: 47.0023°
orbit number at epoch: 1

The dashed part of the orbit path shows where the satellite is in the earth's shadow,  

DLR